FENGYUN 1C DEB, 31324

Orbit data source: Space-Track

FENGYUN 1C DEB, 31324 is space debris in SSO originally from a launch on Mon, 10 May 1999 UTC launched from the Taiyaun Space Center, China (TSC). Fengyun 1C debris stems from the Chinese weather satellite Fengyun-1C, which was intentionally destroyed by a Chinese anti-satellite missile in 2007. This event dramatically increased the amount of space debris, with thousands of trackable fragments posing hazards to satellites and human spaceflight. The Fengyun 1C debris cloud has become a focal point in discussions about space sustainability and the need for international regulations to prevent the creation of new debris.

Loading next visibility...
Identifier
31324, 1999-025BQC
Orbit
SSO
Country
Flag of CNCN / PRC
Related business
Manufacturer
Unknown
Mission
Spacecraft
Bus & Motor
Unknown
Mass
Unknown
Launch date (UTC)
1999-05-10 (27 years ago)
Launch vehicle
Unknown
Launch site
Taiyaun Space Center, China (TSC)
Object type
Payload
Rocket body
Debris
Shape & HBR
Unknown shape, 0.1 m
Radar Cross Section
Small (<0.1 m²)

Expand to show TLE details & history
Last TLE update: 4 days ago

TLE from 4 days ago
0 FENGYUN 1C DEB
1 31324U 99025BQC 26034.23219632  .00000235  00000-0  14438-3 0  9994
2 31324  99.1263 321.8584 0050201 154.4018 205.9655 14.14733884972280
Epoch: 2026-02-03T05:34Z
TLE epoch observation values (Epoch: 2026-02-03T05:34:21.762Z)
Latitude
-0.00006°
Longitude
104.85165°
Altitude
878.745 km
Speed
7.396 km/s
True Right ascension
21h 27m 26s
True Declination
0° 00' 00"
Sunlit
Object was in daylight at epoch
Visualization orbit readout
Latitude
Unknown
Longitude
Unknown
Altitude
Unknown
Speed
Unknown
Apparent Right ascension
Unknown
Apparent Declination
Unknown
Sunlit
N/A
Visualization observer readout
Local Sidereal Time
17:54:48
Azimuth
Unknown
Elevation
Unknown
Doppler factor
Unknown
Orbital elements
Apogee altitude
876.641 km
Perigee altitude
804.166 km
Semi-major axis
7,218.54 km
Eccentricity
0.00502
Inclination
99.1263°
RAAN
321.8584°
Arg. of periapsis
154.4018°
True anomaly
205.71505°
Mean anomaly
205.9655°
Eccentric anomaly
205.84013°
Mean motion
3.53891 °/min
Orbital period
101.73 mins
BSTAR
0.00014438
Loading maneuver chart data...
Computing Atmospheric mass density...

Documentation

Showing up to 5 results
|